星链-35404(STARLINK-35404)

导读 | 豆包AI

STARLINK-35404是美国太空探索技术公司星链星座的卫星,于2025年11月6日发射入轨,属于SpaceX打造的全球卫星互联网组网项目的组成部分。星链系统通过部署近地轨道卫星群,可为全球范围提供低延迟高速互联网服务,这颗卫星承担着补充星座容量、提升网络覆盖稳定性的任务。

基本信息
目录编号:
66336
目录名称:
STARLINK-35404
国际标识:
2025-253T
轨道中心:
EARTH
卫星名称:
星链-35404
卫星全名:
星链-35404(STARLINK-35404)
卫星状态:
在轨 (已飞行128 天)
发射日期:
2025-11-06 UTC
国别 :
美国 (US)
星等 :
--
轨道信息
数据来源 国际轨道数据
星历时间: 2026-03-13T16:09:02+0800
21小时前
查看轨道信息
半长轴: 6861.151km
偏心率: 0.0001256
轨道倾角: 42.996°
近地点辐角 328.015°
升交点赤经 191.809°
平近点角 32.062°
近地点: 482.152km
远地点: 483.876km
周期: 94.266分钟
每日圈数: 15.275918
详细信息
固有亮度:
5
最大亮度:
2.5
卫星平台:
Starlink V1.0
覆盖范围:
全球
运营商:
太空探索技术公司
运营商所在国:
美国
制造商(研发单位):
太空探索技术公司
制造商所在国:
美国
使用方式:
暂无
卫星简介
Starlink 计划是 SpaceX 推出的全球卫星互联网项目,通过发射低轨道卫星,为全球尤其是偏远地区提供高速、低延迟的互联网服务。自 2019 年起,Starlink 已部署数千颗卫星,旨在缩小全球数字鸿沟,推动互联网普及。该项目还为军事、航空等行业提供通信支持,带来广泛经济效益。
2D轨道图
3D轨道图
轨道高度分析图
轨道倾角分析图
轨道综合分析图
查看轨道综合分析图